When you browse on this site, cookies collect data to enhance your experience and personalize the content and advertising you see.
Visit our Privacy Policy to learn more. By continuing to use the site, you agree to this use of cookies and data.
  • In Romania
  • List of Countries
  • For 7 days
  • Water Temperature
  • Satellite Maps
  • Weather Map
  • Weather Widgets
  • user-avatar
    Login

    Hourly Weather Manosque

    Today, 19 June, Wednesday

    Time Temperature Precipitation Wind Pressure Humidity
    00:00 +18°C° 0 mm 1 mps 728 mmHg 54%
    01:00 +18°C° 0 mm 1 mps 728 mmHg 55%
    02:00 +18°C° 0 mm 1 mps 727 mmHg 56%
    03:00 +16°C° 0 mm 1 mps 727 mmHg 57%
    04:00 +19°C° 0 mm 1 mps 727 mmHg 55%
    05:00 +20°C° 0 mm 1 mps 727 mmHg 54%
    06:00 +22°C° 0 mm 1 mps 728 mmHg 54%
    07:00 +24°C° 0 mm 1 mps 728 mmHg 46%
    08:00 +26°C° 0 mm 1 mps 728 mmHg 39%
    09:00 +28°C° 0 mm 2 mps 728 mmHg 31%
    10:00 +29°C° 0 mm 2 mps 728 mmHg 30%
    11:00 +30°C° 0 mm 3 mps 728 mmHg 28%
    12:00 +30°C° 0 mm 4 mps 728 mmHg 27%
    13:00 +30°C° 0 mm 4 mps 728 mmHg 26%
    14:00 +30°C° 0 mm 4 mps 728 mmHg 26%
    15:00 +30°C° 0 mm 4 mps 727 mmHg 26%
    16:00 +28°C° 0 mm 3 mps 727 mmHg 31%
    17:00 +27°C° 0 mm 3 mps 727 mmHg 37%
    18:00 +25°C° 0 mm 2 mps 727 mmHg 42%
    19:00 +23°C° 0 mm 2 mps 727 mmHg 47%
    20:00 +20°C° 0 mm 1 mps 727 mmHg 51%
    21:00 +16°C° 0 mm 0 mps 727 mmHg 55%
    22:00 +18°C° 0 mm 1 mps 727 mmHg 55%
    23:00 +18°C° 0 mm 1 mps 727 mmHg 54%

    Tomorrow, 20 June, Thursday

    Time Temperature Precipitation Wind Pressure Humidity
    00:00 +16°C° 0 mm 1 mps 727 mmHg 54%
    01:00 +16°C° 0 mm 1 mps 727 mmHg 54%
    02:00 +16°C° 0 mm 1 mps 727 mmHg 54%
    03:00 +16°C° 0 mm 1 mps 726 mmHg 55%
    04:00 +18°C° 0 mm 1 mps 727 mmHg 53%
    05:00 +19°C° 0 mm 1 mps 727 mmHg 52%
    06:00 +21°C° 0 mm 1 mps 727 mmHg 51%
    07:00 +23°C° 0 mm 1 mps 727 mmHg 46%
    08:00 +25°C° 0 mm 1 mps 728 mmHg 41%
    09:00 +27°C° 0 mm 1 mps 728 mmHg 36%
    10:00 +28°C° 0 mm 2 mps 728 mmHg 36%
    11:00 +29°C° 0 mm 2 mps 728 mmHg 36%
    12:00 +30°C° 0 mm 2 mps 728 mmHg 35%
    13:00 +30°C° 0 mm 3 mps 728 mmHg 35%
    14:00 +31°C° 0 mm 3 mps 728 mmHg 34%
    15:00 +31°C° 0 mm 3 mps 727 mmHg 34%
    16:00 +30°C° 0 mm 3 mps 727 mmHg 41%
    17:00 +28°C° 0 mm 3 mps 727 mmHg 48%
    18:00 +27°C° 0 mm 3 mps 727 mmHg 55%
    19:00 +25°C° 0 mm 2 mps 727 mmHg 62%
    20:00 +23°C° 0 mm 2 mps 727 mmHg 69%
    21:00 +21°C° 0 mm 1 mps 727 mmHg 76%
    22:00 +20°C° 0 mm 1 mps 727 mmHg 77%
    23:00 +18°C° 0 mm 0 mps 728 mmHg 78%

    Day after tomorrow, 21 June, Friday

    Time Temperature Precipitation Wind Pressure Humidity
    00:00 +18°C° 0 mm 0 mps 728 mmHg 79%
    01:00 +19°C° 0.1 mm 1 mps 728 mmHg 82%
    02:00 +19°C° 0.1 mm 1 mps 728 mmHg 84%
    03:00 +18°C° 0.1 mm 1 mps 727 mmHg 87%
    04:00 +19°C° 0 mm 1 mps 728 mmHg 83%
    05:00 +20°C° 0 mm 1 mps 728 mmHg 79%
    06:00 +21°C° 0 mm 1 mps 728 mmHg 76%
    07:00 +24°C° 0 mm 1 mps 728 mmHg 67%
    08:00 +26°C° 0 mm 1 mps 728 mmHg 59%
    09:00 +28°C° 0 mm 1 mps 729 mmHg 50%
    10:00 +29°C° 0 mm 1 mps 729 mmHg 47%
    11:00 +30°C° 0 mm 2 mps 729 mmHg 44%
    12:00 +30°C° 0 mm 3 mps 729 mmHg 41%
    13:00 +30°C° 0 mm 3 mps 728 mmHg 43%
    14:00 +30°C° 0 mm 4 mps 728 mmHg 45%
    15:00 +30°C° 0 mm 5 mps 728 mmHg 47%
    16:00 +28°C° 0.9 mm 4 mps 728 mmHg 55%
    17:00 +27°C° 0.9 mm 2 mps 728 mmHg 62%
    18:00 +25°C° 0.9 mm 1 mps 728 mmHg 70%
    19:00 +24°C° 0.1 mm 1 mps 728 mmHg 74%
    20:00 +22°C° 0.1 mm 1 mps 728 mmHg 79%
    21:00 +20°C° 0.1 mm 1 mps 728 mmHg 83%
    22:00 +20°C° 0 mm 1 mps 728 mmHg 84%
    23:00 +17°C° 0 mm 0 mps 728 mmHg 85%

    22 June, Saturday

    Time Temperature Precipitation Wind Pressure Humidity
    00:00 +17°C° 0 mm 0 mps 728 mmHg 86%
    01:00 +17°C° 0 mm 0 mps 727 mmHg 87%
    02:00 +16°C° 0 mm 0 mps 727 mmHg 88%
    03:00 +16°C° 0 mm 0 mps 727 mmHg 88%
    04:00 +19°C° 0 mm 1 mps 727 mmHg 85%
    05:00 +20°C° 0 mm 1 mps 727 mmHg 81%
    06:00 +21°C° 0 mm 1 mps 728 mmHg 78%
    07:00 +23°C° 0 mm 1 mps 728 mmHg 70%
    08:00 +25°C° 0 mm 1 mps 728 mmHg 63%
    09:00 +27°C° 0 mm 2 mps 728 mmHg 55%
    10:00 +28°C° 0 mm 2 mps 728 mmHg 50%
    11:00 +29°C° 0 mm 3 mps 728 mmHg 44%
    12:00 +30°C° 0 mm 4 mps 728 mmHg 38%
    13:00 +30°C° 0 mm 4 mps 728 mmHg 39%
    14:00 +30°C° 0 mm 4 mps 728 mmHg 39%
    15:00 +30°C° 0 mm 5 mps 728 mmHg 40%
    16:00 +28°C° 0 mm 4 mps 728 mmHg 45%
    17:00 +27°C° 0 mm 4 mps 728 mmHg 51%
    18:00 +26°C° 0 mm 3 mps 728 mmHg 56%
    19:00 +24°C° 0 mm 2 mps 728 mmHg 62%
    20:00 +21°C° 0 mm 2 mps 728 mmHg 69%
    21:00 +20°C° 0 mm 1 mps 728 mmHg 75%
    22:00 +20°C° 0 mm 1 mps 728 mmHg 77%
    23:00 +19°C° 0 mm 1 mps 728 mmHg 80%

    23 June, Sunday

    Time Temperature Precipitation Wind Pressure Humidity
    00:00 +19°C° 0 mm 1 mps 728 mmHg 82%
    01:00 +18°C° 0 mm 1 mps 728 mmHg 66%
    02:00 +18°C° 0 mm 1 mps 728 mmHg 67%
    03:00 +18°C° 0 mm 1 mps 728 mmHg 69%
    04:00 +19°C° 0 mm 1 mps 728 mmHg 67%
    05:00 +20°C° 0 mm 1 mps 728 mmHg 64%
    06:00 +22°C° 0 mm 1 mps 728 mmHg 62%
    07:00 +24°C° 0 mm 1 mps 729 mmHg 53%
    08:00 +27°C° 0 mm 1 mps 729 mmHg 45%
    09:00 +29°C° 0 mm 1 mps 730 mmHg 36%
    10:00 +31°C° 0 mm 2 mps 730 mmHg 33%
    11:00 +32°C° 0 mm 2 mps 730 mmHg 30%
    12:00 +34°C° 0 mm 2 mps 730 mmHg 27%
    13:00 +34°C° 0 mm 3 mps 730 mmHg 28%
    14:00 +34°C° 0 mm 3 mps 730 mmHg 29%
    15:00 +34°C° 0 mm 3 mps 730 mmHg 30%
    16:00 +32°C° 0 mm 2 mps 730 mmHg 37%
    17:00 +30°C° 0 mm 2 mps 730 mmHg 43%
    18:00 +29°C° 0 mm 1 mps 730 mmHg 49%
    19:00 +26°C° 0 mm 1 mps 730 mmHg 56%
    20:00 +24°C° 0 mm 1 mps 730 mmHg 63%
    21:00 +20°C° 0 mm 0 mps 730 mmHg 69%
    22:00 +21°C° 0 mm 1 mps 730 mmHg 69%
    23:00 +21°C° 0 mm 1 mps 730 mmHg 70%

    24 June, Monday

    Time Temperature Precipitation Wind Pressure Humidity
    00:00 +20°C° 0 mm 2 mps 730 mmHg 70%
    01:00 +20°C° 0 mm 2 mps 730 mmHg 68%
    02:00 +21°C° 0 mm 1 mps 730 mmHg 67%
    03:00 +21°C° 0 mm 1 mps 730 mmHg 65%
    04:00 +21°C° 0 mm 2 mps 730 mmHg 62%
    05:00 +23°C° 0 mm 2 mps 731 mmHg 59%
    06:00 +25°C° 0 mm 2 mps 731 mmHg 56%
    07:00 +27°C° 0 mm 2 mps 731 mmHg 48%
    08:00 +30°C° 0 mm 3 mps 731 mmHg 40%
    09:00 +34°C° 0 mm 3 mps 731 mmHg 32%
    10:00 +35°C° 0 mm 4 mps 732 mmHg 30%
    11:00 +36°C° 0 mm 5 mps 732 mmHg 27%
    12:00 +39°C° 0 mm 5 mps 732 mmHg 24%
    13:00 +37°C° 0 mm 5 mps 732 mmHg 25%
    14:00 +37°C° 0 mm 5 mps 732 mmHg 25%
    15:00 +37°C° 0 mm 5 mps 732 mmHg 25%
    16:00 +35°C° 0 mm 4 mps 732 mmHg 30%
    17:00 +34°C° 0 mm 3 mps 732 mmHg 34%
    18:00 +31°C° 0 mm 2 mps 732 mmHg 38%
    19:00 +29°C° 0 mm 2 mps 732 mmHg 41%
    20:00 +27°C° 0 mm 2 mps 732 mmHg 45%
    21:00 +24°C° 0 mm 2 mps 733 mmHg 48%
    22:00 +24°C° 0 mm 2 mps 733 mmHg 49%
    23:00 +24°C° 0 mm 2 mps 733 mmHg 51%
    Show more